Location: Hilton Head Island
(32.2163°N, 80.7526°W)
Time: 15:26:01
(UTC-04:00)

Tiros 1 despin weight - Pass Details

Date: 20 February 2026
Orbit: 556 x 593 km, 48.2° (Epoch: 10 March)

Event Time Altitude Azimuth Distance (km) Brightness Sun altitude
Rises 18:40:47 0° 320° (NW) 2,732 ? -6.5°
Reaches altitude 10° 18:43:59 10° 346° (NNW) 1,835 ? -7.2°
Maximum altitude 18:46:17 14° 20° (NNE) 1,576 ? -7.7°
Drops below altitude 10° 18:48:36 10° 53° (NE) 1,837 ? -8.1°
Enters shadow 18:49:08 - 59° (ENE) 1,957 ? -8.3°
Sets 18:51:47 0° 79° (ENE) 2,735 - -8.8°
